Sacramento, CA

3:23 PM PDT on July 25, 2017 (GMT -0700)
Sacramento Executive

Weather History for KSAC - April, 2013

Change the Weather History Date:

Sunday, April 28, 2013

  Actual Average Record
Temperature  
Mean Temperature 72 °F -  
Max Temperature 92 °F 75 °F 92 °F (2013)
Min Temperature 52 °F 48 °F 36 °F (1970)
Degree Days  
Heating Degree Days 0    
Cooling Degree Days 7    
Growing Degree Days 22 (Base 50)    
Moisture  
Dew Point 48 °F    
Average Humidity 50    
Maximum Humidity 83    
Minimum Humidity 16    
Precipitation  
Precipitation 0.00 in 0.03 in 1.27 in (1983)
Month to date precipitation 0.69 1.10  
Year to date precipitation 3.39 10.96  
Since 1 July precipitation 14.68  
Sea Level Pressure  
Sea Level Pressure 29.95 in    
Wind  
Wind Speed 2 mph (NW)    
Max Wind Speed 13 mph    
Max Gust Speed 17 mph    
Visibility 10 miles    
Events      
T = Trace of Precipitation, MM = Missing Value Source: NWS Daily Summary

Daily Weather History Graph

Daily Weather History Graph

Search for Another Location

Airport or City:

Trip Planner

Search our weather history database for the weather conditions in past years. The results will help you decide how hot, cold, wet, or windy it might be!

Date:

Astronomy

Apr. 28, 2013 Rise Set
Actual Time 6:12 AM PDT 7:55 PM PDT
Civil Twilight 5:43 AM PDT 8:23 PM PDT
Nautical Twilight 5:09 AM PDT 8:58 PM PDT
Astronomical Twilight 4:33 AM PDT 9:34 PM PDT
Moon 11:29 PM PDT (4/28) 8:35 AM PDT (4/28)
Length of Visible Light 14h 39m
Length of Day
13h 43m
Waning Gibbous, 88% of the Moon is Illuminated
Apr 28
Waning Gibbous
May 2
Last Quarter
May 9
New
May 17
First Quarter
May 24
Full

Hourly Weather History & Observations

Time (PDT) Temp. Dew Point Humidity Pressure Visibility Wind Dir Wind Speed Gust Speed Precip Events Conditions
12:53 AM 57.0 °F 48.0 °F 72% 30.02 in 10.0 mi Calm Calm - N/A   Clear
1:53 AM 55.9 °F 48.9 °F 77% 30.01 in 10.0 mi Calm Calm - N/A   Clear
2:53 AM 55.9 °F 48.9 °F 77% 30.01 in 10.0 mi Calm Calm - N/A   Clear
3:53 AM 55.0 °F 48.0 °F 77% 30.00 in 10.0 mi Calm Calm - N/A   Clear
4:53 AM 54.0 °F 48.0 °F 80% 29.99 in 10.0 mi Calm Calm - N/A   Clear
5:53 AM 53.6 °F 46.4 °F 77% 30.00 in 10.0 mi Calm Calm - N/A   Clear
6:53 AM 53.1 °F 48.0 °F 83% 30.01 in 10.0 mi Calm Calm - N/A   Clear
7:53 AM 57.0 °F 48.0 °F 72% 30.02 in 10.0 mi Calm Calm - N/A   Clear
8:53 AM 62.1 °F 48.9 °F 62% 30.04 in 10.0 mi Calm Calm - N/A   Clear
9:53 AM 69.1 °F 50.0 °F 51% 30.03 in 10.0 mi Calm Calm - N/A   Clear
10:53 AM 73.9 °F 50.0 °F 43% 30.02 in 10.0 mi Calm Calm - N/A   Clear
11:53 AM 81.0 °F 48.9 °F 33% 30.01 in 10.0 mi NNW 5.8 mph - N/A   Clear
12:53 PM 84.9 °F 48.9 °F 29% 29.99 in 10.0 mi NNW 5.8 mph - N/A   Clear
1:53 PM 88.0 °F 45.0 °F 22% 29.96 in 10.0 mi NW 11.5 mph 16.1 mph N/A   Clear
2:53 PM 91.0 °F 45.0 °F 20% 29.92 in 10.0 mi NNW 9.2 mph - N/A   Clear
3:53 PM 91.0 °F 44.1 °F 20% 29.89 in 10.0 mi WNW 5.8 mph - N/A   Clear
4:53 PM 91.0 °F 44.1 °F 20% 29.88 in 10.0 mi NW 8.1 mph - N/A   Clear
5:53 PM 90.0 °F 37.9 °F 16% 29.86 in 10.0 mi NW 8.1 mph - N/A   Clear
6:53 PM 87.1 °F 39.9 °F 19% 29.85 in 10.0 mi NNW 5.8 mph - N/A   Clear
7:53 PM 75.9 °F 48.9 °F 38% 29.84 in 10.0 mi Calm Calm - N/A   Clear
8:53 PM 75.0 °F 54.0 °F 48% 29.85 in 10.0 mi SSW 3.5 mph - N/A   Clear
9:53 PM 70.0 °F 55.9 °F 61% 29.86 in 10.0 mi Calm Calm - N/A   Clear
10:53 PM 66.0 °F 55.0 °F 68% 29.85 in 10.0 mi SW 4.6 mph - N/A   Clear
11:53 PM 63.0 °F 54.0 °F 72% 29.85 in 10.0 mi Calm Calm - N/A   Clear